Location: ?
(35.4064°N, 139.3593°E)
Time: 12:55:25
(UTC+00:00)

FENGYUN 1C DEB - Visible Passes

Search period start: 03 October 2024 00:00
Search period end: 13 October 2024 00:00
Orbit: 833 x 940 km, 99.0° (Epoch: 27 September)

Date Brightness Start Highest point End Pass type
(mag) Time Alt. Az. Time Alt. Az. Time Alt. Az.
03 Oct ? 10:13:22 15° NE 10:13:22 15° NE 10:14:59 10° NNE visible
03 Oct ? 11:56:09 19° NNW 11:56:09 19° NNW 11:57:45 10° NNW visible
04 Oct ? 10:12:15 14° NE 10:12:15 14° NE 10:13:42 10° NNE visible
04 Oct ? 11:55:02 18° NNW 11:55:02 18° NNW 11:56:32 10° NNW visible
05 Oct ? 10:11:09 14° NNE 10:11:09 14° NNE 10:12:25 10° NNE visible
05 Oct ? 11:53:55 18° NNW 11:53:55 18° NNW 11:55:19 10° NNW visible
06 Oct ? 10:10:02 13° NNE 10:10:02 13° NNE 10:11:07 10° NNE visible
06 Oct ? 11:52:49 17° NNW 11:52:49 17° NNW 11:54:05 10° NNW visible
07 Oct ? 10:08:55 13° NNE 10:08:55 13° NNE 10:09:50 10° NNE visible
07 Oct ? 11:51:42 16° NNW 11:51:42 16° NNW 11:52:52 10° NNW visible
08 Oct ? 10:07:48 12° NNE 10:07:48 12° NNE 10:08:32 10° NNE visible
08 Oct ? 11:50:35 16° NNW 11:50:35 16° NNW 11:51:38 10° NNW visible
09 Oct ? 10:06:41 12° NNE 10:06:41 12° NNE 10:07:14 10° NNE visible
09 Oct ? 11:49:28 15° NNW 11:49:28 15° NNW 11:50:24 10° NNW visible
10 Oct ? 10:05:34 11° NNE 10:05:34 11° NNE 10:05:55 10° NNE visible
10 Oct ? 11:48:21 14° NNW 11:48:21 14° NNW 11:49:10 10° NNW visible
11 Oct ? 10:04:27 10° NNE 10:04:27 10° NNE 10:04:36 10° NNE visible
11 Oct ? 11:47:14 14° NNW 11:47:14 14° NNW 11:47:57 10° NNW visible
12 Oct ? 11:46:07 13° NNW 11:46:07 13° NNW 11:46:43 10° NNW visible
